• In Denmark
  • List of Countries
  • For 7 days
  • Water Temperature
  • Satellite Maps
  • Weather Map
  • Weather Widgets
  • user-avatar
    Login

    Hourly Weather Balpyk

    Today, 21 August, Tuesday

    Time Temperature Precipitation Wind Pressure Humidity
    00:00 +29°C° 0 mm 5 mps 705 mmHg 32%
    01:00 +27°C° 0 mm 5 mps 706 mmHg 39%
    02:00 +26°C° 0 mm 6 mps 707 mmHg 46%
    03:00 +25°C° 0.5 mm 5 mps 707 mmHg 54%
    04:00 +22°C° 0.5 mm 5 mps 708 mmHg 63%
    05:00 +21°C° 0 mm 4 mps 709 mmHg 73%
    06:00 +21°C° 1.7 mm 4 mps 709 mmHg 71%
    07:00 +22°C° 1.7 mm 4 mps 709 mmHg 69%
    08:00 +22°C° 1.7 mm 5 mps 710 mmHg 67%
    09:00 +23°C° 0 mm 5 mps 710 mmHg 59%
    10:00 +25°C° 0 mm 5 mps 710 mmHg 51%
    11:00 +26°C° 0 mm 6 mps 711 mmHg 44%
    12:00 +26°C° 0 mm 5 mps 711 mmHg 43%
    13:00 +26°C° 0 mm 5 mps 711 mmHg 42%
    14:00 +26°C° 0 mm 5 mps 711 mmHg 41%
    15:00 +26°C° 0 mm 5 mps 711 mmHg 41%
    16:00 +26°C° 0 mm 4 mps 711 mmHg 40%
    17:00 +26°C° 0 mm 4 mps 710 mmHg 39%
    18:00 +25°C° 0 mm 3 mps 711 mmHg 41%
    19:00 +24°C° 0 mm 3 mps 711 mmHg 43%
    20:00 +23°C° 0 mm 2 mps 711 mmHg 45%
    21:00 +23°C° 0 mm 2 mps 711 mmHg 45%
    22:00 +23°C° 0 mm 2 mps 711 mmHg 44%
    23:00 +21°C° 0 mm 2 mps 711 mmHg 44%

    Tomorrow, 22 August, Wednesday

    Time Temperature Precipitation Wind Pressure Humidity
    00:00 +22°C° 0 mm 1 mps 711 mmHg 44%
    01:00 +21°C° 0 mm 1 mps 711 mmHg 45%
    02:00 +20°C° 0 mm 1 mps 711 mmHg 46%
    03:00 +20°C° 0 mm 1 mps 711 mmHg 47%
    04:00 +19°C° 0 mm 1 mps 711 mmHg 48%
    05:00 +19°C° 0 mm 1 mps 711 mmHg 48%
    06:00 +20°C° 0 mm 1 mps 711 mmHg 45%
    07:00 +22°C° 0 mm 1 mps 711 mmHg 41%
    08:00 +23°C° 0 mm 1 mps 712 mmHg 37%
    09:00 +24°C° 0 mm 2 mps 712 mmHg 35%
    10:00 +25°C° 0 mm 2 mps 711 mmHg 33%
    11:00 +26°C° 0 mm 3 mps 711 mmHg 31%
    12:00 +27°C° 0 mm 3 mps 711 mmHg 30%
    13:00 +27°C° 0 mm 3 mps 711 mmHg 29%
    14:00 +28°C° 0 mm 4 mps 711 mmHg 28%
    15:00 +28°C° 0 mm 4 mps 711 mmHg 27%
    16:00 +27°C° 0 mm 4 mps 711 mmHg 27%
    17:00 +27°C° 0 mm 4 mps 710 mmHg 27%
    18:00 +25°C° 0 mm 3 mps 711 mmHg 29%
    19:00 +24°C° 0 mm 2 mps 711 mmHg 31%
    20:00 +22°C° 0 mm 1 mps 711 mmHg 32%
    21:00 +21°C° 0 mm 2 mps 711 mmHg 33%
    22:00 +20°C° 0 mm 2 mps 711 mmHg 34%
    23:00 +20°C° 0 mm 2 mps 711 mmHg 35%

    Day after tomorrow, 23 August, Thursday

    Time Temperature Precipitation Wind Pressure Humidity
    00:00 +19°C° 0 mm 2 mps 711 mmHg 37%
    01:00 +19°C° 0 mm 2 mps 710 mmHg 38%
    02:00 +19°C° 0 mm 2 mps 710 mmHg 39%
    03:00 +18°C° 0 mm 2 mps 710 mmHg 39%
    04:00 +18°C° 0 mm 2 mps 710 mmHg 39%
    05:00 +18°C° 0 mm 2 mps 710 mmHg 40%
    06:00 +21°C° 0 mm 1 mps 710 mmHg 36%
    07:00 +23°C° 0 mm 1 mps 710 mmHg 32%
    08:00 +25°C° 0 mm 1 mps 711 mmHg 28%
    09:00 +26°C° 0 mm 1 mps 711 mmHg 27%
    10:00 +27°C° 0 mm 1 mps 710 mmHg 25%
    11:00 +28°C° 0 mm 2 mps 710 mmHg 23%
    12:00 +29°C° 0 mm 2 mps 710 mmHg 22%
    13:00 +29°C° 0 mm 2 mps 710 mmHg 21%
    14:00 +30°C° 0 mm 3 mps 709 mmHg 20%
    15:00 +30°C° 0 mm 3 mps 709 mmHg 20%
    16:00 +29°C° 0 mm 3 mps 709 mmHg 20%
    17:00 +29°C° 0 mm 3 mps 709 mmHg 20%
    18:00 +28°C° 0 mm 3 mps 709 mmHg 23%
    19:00 +26°C° 0 mm 3 mps 709 mmHg 26%
    20:00 +24°C° 0 mm 3 mps 709 mmHg 29%
    21:00 +22°C° 0 mm 3 mps 709 mmHg 30%
    22:00 +22°C° 0 mm 3 mps 708 mmHg 32%
    23:00 +21°C° 0 mm 2 mps 708 mmHg 33%

    24 August, Friday

    Time Temperature Precipitation Wind Pressure Humidity
    00:00 +21°C° 0 mm 2 mps 708 mmHg 34%
    01:00 +21°C° 0 mm 2 mps 707 mmHg 35%
    02:00 +20°C° 0 mm 2 mps 707 mmHg 36%
    03:00 +20°C° 0 mm 2 mps 707 mmHg 37%
    04:00 +20°C° 0 mm 2 mps 707 mmHg 38%
    05:00 +20°C° 0 mm 2 mps 707 mmHg 38%
    06:00 +23°C° 0 mm 2 mps 707 mmHg 35%
    07:00 +25°C° 0 mm 2 mps 707 mmHg 32%
    08:00 +27°C° 0 mm 1 mps 708 mmHg 29%
    09:00 +28°C° 0 mm 2 mps 707 mmHg 26%
    10:00 +29°C° 0 mm 2 mps 707 mmHg 23%
    11:00 +31°C° 0 mm 2 mps 707 mmHg 20%
    12:00 +31°C° 0 mm 3 mps 707 mmHg 19%
    13:00 +33°C° 0 mm 3 mps 706 mmHg 18%
    14:00 +33°C° 0 mm 4 mps 706 mmHg 17%
    15:00 +33°C° 0 mm 4 mps 706 mmHg 18%
    16:00 +33°C° 0 mm 4 mps 706 mmHg 18%
    17:00 +32°C° 0 mm 4 mps 707 mmHg 19%
    18:00 +29°C° 0 mm 3 mps 707 mmHg 22%
    19:00 +28°C° 0 mm 2 mps 707 mmHg 25%
    20:00 +26°C° 0 mm 1 mps 707 mmHg 28%
    21:00 +25°C° 0 mm 2 mps 707 mmHg 28%
    22:00 +25°C° 0 mm 3 mps 707 mmHg 28%
    23:00 +25°C° 0 mm 4 mps 707 mmHg 28%

    25 August, Saturday

    Time Temperature Precipitation Wind Pressure Humidity
    00:00 +23°C° 0 mm 4 mps 707 mmHg 29%
    01:00 +23°C° 0 mm 4 mps 707 mmHg 30%
    02:00 +23°C° 0 mm 4 mps 707 mmHg 32%
    03:00 +22°C° 0 mm 4 mps 707 mmHg 33%
    04:00 +22°C° 0 mm 4 mps 707 mmHg 34%
    05:00 +22°C° 0 mm 4 mps 707 mmHg 35%
    06:00 +23°C° 0 mm 4 mps 707 mmHg 32%
    07:00 +26°C° 0 mm 4 mps 707 mmHg 30%
    08:00 +28°C° 0 mm 3 mps 708 mmHg 27%
    09:00 +29°C° 0 mm 3 mps 708 mmHg 26%
    10:00 +30°C° 0 mm 3 mps 707 mmHg 24%
    11:00 +31°C° 0 mm 3 mps 707 mmHg 23%
    12:00 +33°C° 0 mm 3 mps 707 mmHg 22%
    13:00 +33°C° 0 mm 4 mps 707 mmHg 22%
    14:00 +33°C° 0 mm 4 mps 706 mmHg 21%
    15:00 +33°C° 0 mm 4 mps 706 mmHg 22%
    16:00 +32°C° 0 mm 4 mps 706 mmHg 23%
    17:00 +32°C° 0 mm 4 mps 706 mmHg 24%
    18:00 +29°C° 0 mm 4 mps 706 mmHg 27%
    19:00 +27°C° 0 mm 3 mps 706 mmHg 30%
    20:00 +25°C° 0 mm 3 mps 706 mmHg 34%
    21:00 +25°C° 0 mm 3 mps 706 mmHg 35%
    22:00 +24°C° 0 mm 3 mps 705 mmHg 36%
    23:00 +22°C° 0 mm 3 mps 705 mmHg 37%

    26 August, Sunday

    Time Temperature Precipitation Wind Pressure Humidity
    00:00 +22°C° 0 mm 3 mps 704 mmHg 38%
    01:00 +21°C° 0 mm 3 mps 704 mmHg 39%
    02:00 +21°C° 0 mm 2 mps 704 mmHg 40%
    03:00 +20°C° 0 mm 2 mps 704 mmHg 41%
    04:00 +20°C° 0 mm 2 mps 704 mmHg 43%
    05:00 +20°C° 0 mm 2 mps 704 mmHg 44%
    06:00 +23°C° 0 mm 2 mps 704 mmHg 40%
    07:00 +25°C° 0 mm 2 mps 704 mmHg 35%
    08:00 +27°C° 0 mm 2 mps 705 mmHg 31%
    09:00 +28°C° 0.1 mm 2 mps 705 mmHg 29%
    10:00 +29°C° 0.1 mm 3 mps 705 mmHg 28%
    11:00 +30°C° 0.1 mm 3 mps 705 mmHg 26%
    12:00 +30°C° 0.1 mm 4 mps 705 mmHg 26%
    13:00 +30°C° 0.1 mm 5 mps 706 mmHg 26%
    14:00 +32°C° 0.1 mm 6 mps 706 mmHg 27%
    15:00 +30°C° 0.1 mm 6 mps 706 mmHg 26%
    16:00 +29°C° 0.1 mm 6 mps 706 mmHg 26%
    17:00 +28°C° 0.1 mm 7 mps 706 mmHg 25%
    18:00 +26°C° 0 mm 5 mps 707 mmHg 27%
    19:00 +24°C° 0 mm 3 mps 707 mmHg 29%
    20:00 +21°C° 0 mm 2 mps 707 mmHg 31%
    21:00 +21°C° 0 mm 2 mps 707 mmHg 32%
    22:00 +20°C° 0 mm 2 mps 707 mmHg 33%
    23:00 +20°C° 0 mm 2 mps 708 mmHg 34%
    Show more